Location: Valley View Observatory
(41.0081°N, 76.5874°W)
Time: 22:45:36
(UTC-04:00)

Daily predictions for brighter satellites

Satellite Brightness Start Highest point End
(mag) Time Altitude Azimuth Time Altitude Azimuth Time Altitude Azimuth
Cosmos 1666 4.0 20:52:35 10° NNE 20:55:51 25° ENE 20:59:06 10° SE
Cosmos 1500 3.6 20:53:21 10° NNW 20:57:14 68° W 21:01:05 10° S
Lacrosse 5 rocket 1.3 20:54:50 10° SW 20:58:39 81° NW 21:02:42 10° NE
Cosmos 1331 Rocket 4.1 20:55:48 10° NNW 21:01:00 62° ENE 21:06:06 10° SSE
Lacrosse 5 3.9 20:58:23 10° W 21:02:55 32° NNW 21:07:28 10° NNE
Meteor 1-23 Rocket 4.4 20:58:52 10° S 21:04:20 56° E 21:09:55 10° NNE
Cosmos 2285 Rocket 4.2 20:59:58 10° NNW 21:06:15 62° ENE 21:12:31 10° SSE
Cosmos 1743 2.7 21:03:33 10° N 21:07:25 89° E 21:11:15 10° S
Cosmos 2233 Rocket 4.5 21:04:39 10° NNW 21:10:50 64° W 21:16:56 10° S
Cosmos 1726 Rocket 3.6 21:06:23 10° N 21:10:52 87° E 21:15:16 10° S
ALOS 3.2 21:10:02 10° S 21:14:34 50° W 21:19:07 10° NNW
SeaSat 1 3.0 21:10:30 10° SE 21:15:12 47° ENE 21:19:57 10° NNW
Okean 2 3.4 21:11:31 10° S 21:15:39 63° E 21:19:47 10° NNE
Cosmos 1603 4.4 21:13:33 10° SSE 21:18:29 33° ESE 21:23:25 10° NE
Cosmos 1464 Rocket 4.0 21:13:19 10° N 21:19:27 70° E 21:25:34 10° SSE
Cosmos 2058 Rocket 3.0 21:17:28 10° N 21:21:52 87° E 21:26:13 10° S
APEX 3.9 21:18:32 10° NNW 21:22:26 55° ENE 21:26:56 13° SE
Meteor 2-9 Rocket 4.3 21:18:00 10° N 21:23:40 69° E 21:29:26 10° SSE
Meteor 2-4 Rocket 3.9 21:20:51 10° S 21:26:42 88° ESE 21:32:40 10° N
Cosmos 1602 Rocket 4.0 21:25:05 10° SSE 21:29:20 45° E 21:33:37 10° NNE
Cosmos 2333 Rocket 4.2 21:25:15 10° WSW 21:30:17 32° WNW 21:35:22 10° N
Cosmos 2251 Rocket 4.4 21:25:53 10° SW 21:31:05 56° WNW 21:36:22 10° N
Cosmos 1461 3.5 21:27:27 10° NNW 21:31:37 44° NE 21:34:38 16° ESE
deb Chang Zheng 4 3.9 21:27:42 10° N 21:32:07 73° WNW 21:36:28 10° SSW
Cosmos 2297 4.1 21:27:23 10° NNW 21:33:02 64° WSW 21:38:41 10° S
ATLAS 3B R/B 4.1 21:29:52 11° SSE 21:34:52 20° ESE 21:40:06 10° ENE
Milstar 3 Cent rocket 4.0 21:31:09 10° WSW 21:36:04 19° SSW 21:39:27 11° SSE
Cosmos 2034 Rocket 4.1 21:30:57 10° N 21:37:20 72° E 21:43:36 10° SSE
PSLV R/B 3.2 21:37:02 17° SSE 21:39:12 64° ENE 21:42:18 10° N
CZ-2C R/B 3.0 21:37:38 10° SSW 21:39:24 19° W 21:41:11 10° NW
Cosmos 1812 Rocket 4.2 21:35:47 10° N 21:39:54 40° ENE 21:42:44 18° SE
ERS-1 Rocket 3.8 21:38:35 10° S 21:43:26 49° W 21:48:18 10° NNW
Cosmos 1943 4.4 21:41:51 17° SE 21:44:19 22° E 21:48:33 10° NE
Envisat 3.0 21:39:39 11° SSE 21:44:29 87° ENE 21:49:36 10° NNW
BREEZE-M DEB (TANK) 2.3 21:40:45 10° SW 21:45:34 63° SSE 21:47:47 10° ENE
USA 234 3.4 21:43:14 15° ESE 21:48:47 73° NE 21:55:20 10° NW
YAOGAN 6 3.2 21:50:25 23° SE 21:52:21 44° ENE 21:55:56 10° N
H-2A R/B 3.2 21:49:14 10° SSW 21:53:11 39° W 21:57:16 10° NNW
Cosmos 1943 Rocket 4.3 21:54:23 10° NNE 21:56:47 13° NE 21:59:11 10° ENE
MetOp-A 4.1 21:56:20 17° SSE 22:00:28 83° ENE 22:05:51 10° NNW
Abrixas rocket 2.5 21:58:59 10° WNW 22:02:22 59° SW 22:03:38 33° SSE
Cosmos 1626 Rocket 3.7 21:58:25 10° SSW 22:02:51 77° W 22:07:18 10° N
ATLAS CENTAUR R/B 4.5 21:59:57 10° W 22:03:57 23° NW 22:07:59 10° N
Meteor 2-12 Rocket 4.4 22:05:31 10° N 22:11:38 73° E 22:15:36 23° SSE
Atlas Centaur 2 3.6 22:06:52 10° SW 22:13:50 34° SSE 22:18:15 21° ESE
CZ-4C R/B 4.0 22:15:26 31° ESE 22:17:00 45° ENE 22:20:58 10° N
Cosmos 1953 Rocket 4.2 22:18:27 32° ESE 22:19:30 37° E 22:23:34 10° NNE
H-2A R/B 2.9 22:19:21 25° ESE 22:21:16 34° ENE 22:25:47 10° N
PSLV R/B 3.4 22:18:34 10° WSW 22:22:02 54° SSE 22:22:27 50° SE
COSMOS 2455 2.7 22:17:20 10° SSW 22:23:19 76° ESE 22:29:20 10° NNE
Cosmos 1992 Rocket 4.1 22:18:16 10° NNW 22:23:28 61° ENE 22:25:45 32° SE
CZ-4 R/B 3.8 22:19:06 10° NNE 22:24:06 75° ESE 22:27:22 22° S
Cosmos 2369 Rocket 2.6 22:23:20 10° NNW 22:28:52 50° ENE 22:31:20 30° ESE
SPOT 1/Viking Rocket 3.6 22:26:43 26° S 22:29:42 76° WSW 22:34:52 10° NNW
SPOT 5 4.0 22:26:56 14° SSW 22:30:15 34° W 22:34:13 10° NNW
DELTA 2 DEB (DPAF) 4.2 22:29:30 38° SE 22:31:05 67° ENE 22:35:33 10° N
ARGOS 3.1 22:29:23 29° SSE 22:32:14 90° ENE 22:37:43 10° NNW
SL-16 R/B 4.5 22:29:21 10° WSW 22:33:57 25° NW 22:38:36 10° N
IGS 5A 4.2 22:36:44 33° E 22:37:27 36° ENE 22:41:17 10° N
Cosmos 1953 4.2 22:34:57 10° NNE 22:37:43 18° ENE 22:37:47 18° ENE
Lacrosse 5 rocket 4.4 22:35:56 10° WNW 22:38:33 17° NNW 22:41:15 10° NNE
Geosat 3.9 22:33:32 10° NNE 22:38:36 78° ESE 22:42:04 20° SSW
Cosmos 1190 Rocket 4.1 22:37:27 34° SSE 22:39:32 58° ESE 22:44:46 10° NNE
NOAA 11 4.1 22:37:27 32° S 22:40:04 85° WSW 22:45:32 10° NNW
Landsat 7 3.8 22:40:04 42° SE 22:41:37 71° ENE 22:46:22 10° N
Cosmos-2242 4.2 22:40:51 10° NNE 22:44:40 28° ENE 22:45:05 28° E
Meteor 1-22 Rocket 4.2 22:39:57 10° N 22:45:30 71° E 22:47:39 39° SSE
DEBRIS 4.3 22:43:13 10° W 22:45:19 17° WSW 22:45:19 17° WSW
SeaSat 1 4.2 22:50:09 15° SSW 22:52:54 23° WSW 22:56:47 10° NW
Cosmos 1758 Rocket 3.4 22:53:08 57° SSE 22:53:55 73° E 22:58:17 10° NNE
Lacrosse 4 Rocket 1.9 22:55:02 42° ENE 22:55:02 42° ENE 22:58:13 10° NE
Cosmos 676 Rocket 4.3 22:54:56 44° SE 22:55:44 48° ESE 23:00:51 10° NNE
SL-08 RB Rocket 4.1 22:55:15 38° SSW 22:56:46 58° W 23:01:15 10° NNW
Terra 1.8 22:56:20 51° SE 22:57:25 71° ENE 23:02:10 10° N
CARTOSAT-1 3.5 22:57:34 61° SE 22:58:15 76° ENE 23:02:35 10° N
Cosmos 1066 Rocket 4.4 22:57:30 25° SSW 23:00:54 70° W 23:06:42 10° N
Cosmos 1346 Rocket 2.8 23:03:05 61° SW 23:03:36 71° W 23:07:31 10° N
Cosmos 1900 4.3 23:17:41 61° S 23:18:26 73° ESE 23:23:34 10° NE
Meteor 1-21 4.3 23:19:02 42° SSW 23:21:06 80° W 23:26:58 10° N
Cosmos 1758 3.8 23:18:03 10° N 23:21:45 53° ENE 23:21:45 53° ENE
Cosmos 1842 3.4 23:23:02 72° NNE 23:23:02 72° NNE 23:26:36 10° N
Nadezhda 4 Rocket 4.2 23:21:21 47° SE 23:22:42 55° E 23:28:51 10° NNE
Cosmos 1842 Rocket 4.4 23:20:01 10° N 23:23:51 37° ENE 23:23:51 37° ENE
ATLAS 3B R/B 2.9 23:17:05 10° SW 23:24:49 85° WNW 23:32:24 10° NNE
SL-27 R/B 4.4 23:29:34 21° NE 23:29:34 21° NE 23:30:54 10° NNE
Cosmos 1943 3.9 23:23:34 16° SW 23:27:56 52° WNW 23:33:29 10° NNE
Cosmos 407 Rocket 3.8 23:27:24 36° SW 23:29:28 64° WNW 23:34:41 10° NNE
USA 234 4.2 23:30:35 29° SSW 23:32:05 31° SW 23:37:49 10° WNW
Cosmos 1943 Rocket 2.1 23:35:56 10° NNW 23:41:30 76° ENE 23:42:15 65° ESE
Cosmos 1766 4.4 23:38:37 10° NNW 23:42:13 37° W 23:42:13 37° W
Cosmos 1954 Rocket 4.1 23:47:02 60° SW 23:47:58 76° WNW 23:53:18 10° NNE
CZ-4B R/B 3.8 23:50:30 19° NE 23:50:30 19° NE 23:52:26 10° NNE
